Weather History for KRYV - November, 2012

Change the Weather History Date:

Thursday, November 22, 2012

  Actual Average Record
Temperature  
Mean Temperature 50 °F -  
Max Temperature 62 °F 40 °F 66 °F (2010)
Min Temperature 38 °F 24 °F 3 °F (1929)
Degree Days  
Heating Degree Days 14    
Moisture  
Dew Point 41 °F    
Average Humidity 70    
Maximum Humidity 87    
Minimum Humidity 47    
Precipitation  
Precipitation 0.00 in - - ()
Sea Level Pressure  
Sea Level Pressure 29.81 in    
Wind  
Wind Speed 13 mph (SSW)    
Max Wind Speed 24 mph    
Max Gust Speed 34 mph    
Visibility 9 miles    
Events      
Averages and records for this station are not official NWS values.
T = Trace of Precipitation, MM = Missing Value Source: NWS Daily Summary

Daily Weather History Graph

Daily Weather History Graph

Search for Another Location

Airport or City:

Trip Planner

Search our weather history database for the weather conditions in past years. The results will help you decide how hot, cold, wet, or windy it might be!

Date:

Astronomy

Nov. 22, 2012 Rise Set
Actual Time 6:57 AM CST 4:24 PM CST
Civil Twilight 6:25 AM CST 4:56 PM CST
Nautical Twilight 5:50 AM CST 5:31 PM CST
Astronomical Twilight 5:16 AM CST 6:05 PM CST
Moon 1:17 PM CST (11/22) 1:08 AM CST (11/22)
Length of Visible Light 10h 30m
Length of Day
9h 27m
Waxing Gibbous, 71% of the Moon is Illuminated
Nov 22
Waxing Gibbous
Nov 28
Full
Dec 6
Last Quarter
Dec 13
New
Dec 19
First Quarter

Hourly Weather History & Observations

Time (CST) Temp. Windchill Dew Point Humidity Pressure Visibility Wind Dir Wind Speed Gust Speed Precip Events Conditions
12:15 AM 45.3 °F 40.6 °F 39.2 °F 79% 30.00 in 10.0 mi SSW 9.2 mph - N/A   Clear
12:35 AM 45.5 °F 40.3 °F 39.7 °F 80% 30.00 in 10.0 mi SSW 10.4 mph - N/A   Clear
12:55 AM 45.7 °F 39.5 °F 40.1 °F 81% 29.99 in 10.0 mi SSW 13.8 mph 17.3 mph N/A   Clear
1:15 AM 45.7 °F 39.5 °F 40.3 °F 81% 29.99 in 10.0 mi SSW 13.8 mph 19.6 mph N/A   Clear
1:35 AM 45.5 °F 38.6 °F 40.1 °F 81% 29.98 in 10.0 mi SSW 16.1 mph 19.6 mph N/A   Clear
1:55 AM 45.7 °F 40.6 °F 39.9 °F 80% 29.98 in 10.0 mi South 10.4 mph 16.1 mph N/A   Clear
2:15 AM 45.3 °F 41.1 °F 39.9 °F 81% 29.98 in 10.0 mi South 8.1 mph - N/A   Clear
2:35 AM 44.8 °F 39.9 °F 39.7 °F 82% 29.97 in 10.0 mi South 9.2 mph - N/A   Clear
2:55 AM 44.1 °F 39.5 °F 39.7 °F 85% 29.96 in 7.0 mi South 8.1 mph - N/A   Clear
3:15 AM 43.7 °F 39.7 °F 39.7 °F 86% 29.96 in 7.0 mi South 6.9 mph - N/A   Clear
3:35 AM 43.7 °F 39.7 °F 39.9 °F 87% 29.95 in 7.0 mi South 6.9 mph - N/A   Clear
3:55 AM 44.6 °F 40.2 °F 40.5 °F 85% 29.94 in 7.0 mi South 8.1 mph - N/A   Clear
4:15 AM 45.5 °F 40.8 °F 41.0 °F 84% 29.93 in 7.0 mi South 9.2 mph - N/A   Clear
4:35 AM 45.9 °F 40.8 °F 41.2 °F 84% 29.92 in 7.0 mi South 10.4 mph - N/A   Clear
4:55 AM 46.4 °F 41.9 °F 41.4 °F 83% 29.91 in 7.0 mi South 9.2 mph 16.1 mph N/A   Clear
5:15 AM 46.6 °F - 41.2 °F 81% 29.91 in 7.0 mi South 11.5 mph - N/A   Clear
5:35 AM 46.9 °F - 41.0 °F 80% 29.90 in 7.0 mi South 11.5 mph - N/A   Clear
5:55 AM 46.8 °F - 41.0 °F 80% 29.89 in 7.0 mi South 11.5 mph 16.1 mph N/A   Clear
6:15 AM 46.4 °F 41.9 °F 40.6 °F 80% 29.89 in 7.0 mi South 9.2 mph - N/A   Clear
6:35 AM 45.7 °F 41.5 °F 40.1 °F 81% 29.89 in 7.0 mi South 8.1 mph - N/A   Clear
6:55 AM 45.5 °F 41.3 °F 40.1 °F 81% 29.88 in 7.0 mi SSE 8.1 mph - N/A   Clear
7:15 AM 44.6 °F 40.2 °F 40.1 °F 84% 29.87 in 5.0 mi SSE 8.1 mph - N/A   Haze
7:35 AM 45.1 °F 41.4 °F 40.1 °F 82% 29.86 in 5.0 mi SSE 6.9 mph - N/A   Haze
9:15 AM 50.9 °F - 40.1 °F 67% 29.86 in 10.0 mi South 13.8 mph 19.6 mph N/A   Scattered Clouds
9:35 AM 51.6 °F - 40.1 °F 65% 29.85 in 10.0 mi South 15.0 mph 21.9 mph N/A   Clear
9:55 AM 53.6 °F - 40.8 °F 62% 29.84 in 10.0 mi South 16.1 mph 23.0 mph N/A   Clear
10:15 AM 55.0 °F - 41.2 °F 60% 29.84 in 10.0 mi South 18.4 mph 26.5 mph N/A   Clear
10:35 AM 56.3 °F - 41.0 °F 57% 29.83 in 10.0 mi South 17.3 mph 23.0 mph N/A   Clear
10:55 AM 58.1 °F - 41.2 °F 53% 29.80 in 10.0 mi SSW 17.3 mph 24.2 mph N/A   Clear
11:15 AM 59.5 °F - 41.2 °F 51% 29.79 in 10.0 mi South 16.1 mph 23.0 mph N/A   Clear
11:35 AM 61.0 °F - 40.8 °F 47% 29.78 in 10.0 mi SW 20.7 mph 32.2 mph N/A   Clear
11:55 AM 60.4 °F - 41.2 °F 49% 29.76 in 10.0 mi SSW 18.4 mph 29.9 mph N/A   Clear
12:15 PM 60.3 °F - 41.9 °F 51% 29.75 in 10.0 mi South 13.8 mph 21.9 mph N/A   Clear
12:35 PM 62.2 °F - 43.0 °F 49% 29.73 in 10.0 mi SSW 17.3 mph 24.2 mph N/A   Clear
12:55 PM 62.4 °F - 43.0 °F 49% 29.71 in 10.0 mi SSW 17.3 mph 25.3 mph N/A   Clear
1:15 PM 61.0 °F - 43.5 °F 53% 29.72 in 10.0 mi SSW 24.2 mph 34.5 mph N/A   Clear
1:55 PM 61.7 °F - 44.6 °F 53% 29.71 in 10.0 mi SSW 20.7 mph 29.9 mph N/A   Clear
2:15 PM 60.8 °F - 44.6 °F 55% 29.70 in 10.0 mi SSW 21.9 mph 26.5 mph N/A   Clear
2:35 PM 59.9 °F - 44.6 °F 57% 29.70 in 10.0 mi SSW 18.4 mph 24.2 mph N/A   Clear
2:55 PM 59.4 °F - 44.8 °F 58% 29.69 in 10.0 mi SSW 17.3 mph 23.0 mph N/A   Clear
3:15 PM 59.2 °F - 45.1 °F 60% 29.69 in 10.0 mi SSW 16.1 mph 20.7 mph N/A   Clear
3:35 PM 59.4 °F - 45.1 °F 59% 29.69 in 10.0 mi SSW 11.5 mph 21.9 mph N/A   Clear
3:55 PM 59.0 °F - 45.5 °F 61% 29.69 in 10.0 mi SSW 13.8 mph 19.6 mph N/A   Clear
4:15 PM 58.6 °F - 45.0 °F 60% 29.70 in 10.0 mi SSW 17.3 mph 23.0 mph N/A   Clear
4:35 PM 58.1 °F - 45.0 °F 62% 29.69 in 10.0 mi SSW 19.6 mph 26.5 mph N/A   Clear
4:55 PM 57.4 °F - 45.3 °F 64% 29.70 in 10.0 mi SSW 17.3 mph 21.9 mph N/A   Clear
5:15 PM 56.8 °F - 45.5 °F 66% 29.71 in 10.0 mi SSW 13.8 mph 21.9 mph N/A   Clear
5:35 PM 56.5 °F - 45.9 °F 68% 29.71 in 10.0 mi SSW 13.8 mph 23.0 mph N/A   Mostly Cloudy
5:55 PM 56.1 °F - 46.2 °F 69% 29.70 in 10.0 mi SW 17.3 mph 24.2 mph N/A   Overcast
6:15 PM 56.3 °F - 46.4 °F 69% 29.70 in 10.0 mi SSW 16.1 mph 25.3 mph N/A   Overcast
6:55 PM 55.4 °F - 47.7 °F 75% 29.69 in 10.0 mi SSW 15.0 mph 21.9 mph N/A   Overcast
7:15 PM 54.9 °F - 47.8 °F 77% 29.69 in 10.0 mi SSW 16.1 mph 25.3 mph N/A   Overcast
7:55 PM 55.0 °F - 47.8 °F 77% 29.69 in 10.0 mi SW 17.3 mph 24.2 mph N/A   Scattered Clouds
8:35 PM 54.5 °F - 46.9 °F 76% 29.69 in 10.0 mi SW 16.1 mph 20.7 mph N/A   Clear
8:55 PM 53.6 °F - 44.8 °F 72% 29.71 in 10.0 mi WSW 16.1 mph 21.9 mph N/A   Scattered Clouds
9:15 PM 49.3 °F - 38.5 °F 66% 29.73 in 10.0 mi West 19.6 mph 27.6 mph N/A   Mostly Cloudy
9:35 PM 45.3 °F 37.6 °F 36.5 °F 71% 29.75 in 10.0 mi West 19.6 mph 31.1 mph N/A   Scattered Clouds
9:55 PM 43.7 °F 36.0 °F 35.8 °F 74% 29.76 in 10.0 mi West 17.3 mph 25.3 mph N/A   Clear
10:15 PM 42.8 °F 34.5 °F 34.7 °F 73% 29.78 in 10.0 mi West 18.4 mph 25.3 mph N/A   Mostly Cloudy
10:35 PM 42.4 °F 36.1 °F 33.8 °F 71% 29.78 in 10.0 mi West 11.5 mph 26.5 mph N/A   Overcast
10:55 PM 42.1 °F 33.3 °F 32.9 °F 70% 29.78 in 10.0 mi West 19.6 mph 31.1 mph N/A   Overcast
11:15 PM 41.0 °F 32.5 °F 31.6 °F 69% 29.79 in 10.0 mi West 17.3 mph 28.8 mph N/A   Mostly Cloudy
11:35 PM 39.7 °F 31.5 °F 30.9 °F 71% 29.80 in 10.0 mi West 15.0 mph 26.5 mph N/A   Mostly Cloudy
11:55 PM 38.8 °F 28.3 °F 29.5 °F 69% 29.81 in 10.0 mi West 23.0 mph 31.1 mph N/A   Mostly Cloudy